Home   Weather   Augusta   Past weeks
Flag for USA

Past Weather in Augusta, Maine, USA — Yesterday and Last 2 Weeks

Now
66 °F

Overcast.


Feels Like: 66 °F
Forecast: 72 / 54 °F
Wind: 9 mph from North

Location: Augusta State Airport

Current Time: Aug 24, 2019 at 12:58:20 pm

Latest Report: Aug 24, 2019 at 11:53 am


Visibility: 10 mi

Pressure: 30.20 "Hg

Humidity: 65%

Dew Point: 54 °F

Location of AugustaLocation

Past Weather in Augusta — Graph

°F

Augusta Temperature Yesterday

Maximum temperature yesterday: 76 °F (at 2:53 pm)
Minimum temperature yesterday: 60 °F (at 11:53 pm)
Average temperature yesterday: 68 °F

High & Low Weather Summary for the Past Weeks

 TemperatureHumidityPressure
High84 °F (Aug 12, 2:53 pm)100% (Aug 10, 1:53 am)30.20 "Hg (Aug 10, 1:53 am)
Low54 °F (Aug 24, 5:53 am)37% (Aug 14, 2:53 pm)29.62 "Hg (Aug 9, 3:53 pm)
Average68 °F78%29.92 "Hg
* Reported Aug 9 11:53 am — Aug 24 11:53 am, Augusta. Weather by CustomWeather, © 2019

Note: Actual official high and low records may vary slightly from our data, if they occured in-between our weather recording intervals... More about our weather records

Advertising

Augusta Weather History for the Previous 24 Hours

Scroll right to see more
 ConditionsComfort  
Time TempWeatherWind HumidityBarometerVisibility
11:53 am
Sat, Aug 24
66 °FOvercast.9 mph65%30.20 "Hg10 mi
10:53 am65 °FOvercast.13 mph68%30.19 "Hg10 mi
9:53 am65 °FOvercast.16 mph66%30.18 "Hg10 mi
8:53 am64 °FSunny.15 mph70%30.17 "Hg10 mi
7:53 am61 °FSunny.8 mph75%30.16 "Hg10 mi
6:53 am56 °FSunny.No wind84%30.13 "Hg10 mi
5:53 am54 °FSunny.7 mph86%30.10 "Hg10 mi
4:53 am55 °FClear.6 mph80%30.08 "Hg10 mi
3:53 am56 °FClear.6 mph77%30.06 "Hg10 mi
2:53 am56 °FClear.3 mph77%30.06 "Hg10 mi
1:53 am57 °FClear.No wind74%30.03 "Hg10 mi
12:53 am58 °FClear.5 mph75%30.03 "Hg10 mi
11:53 pm
Fri, Aug 23
60 °FClear.6 mph69%30.02 "Hg10 mi
10:53 pm61 °FClear.6 mph65%30.01 "Hg10 mi
9:53 pm62 °FClear.6 mph62%30.01 "Hg10 mi
8:53 pm64 °FClear.7 mph61%30.00 "Hg10 mi
7:53 pm67 °FClear.7 mph53%29.98 "Hg10 mi
6:53 pm69 °FSunny.7 mph49%29.97 "Hg10 mi
5:53 pm71 °FSunny.10 mph49%29.96 "Hg10 mi
4:53 pm75 °FPartly sunny.12 mph43%29.93 "Hg10 mi
3:53 pm76 °FSunny.10 mph42%29.93 "Hg10 mi
2:53 pm76 °FScattered clouds.13 mph43%29.92 "Hg10 mi
1:53 pm75 °FPassing clouds.5 mph47%29.92 "Hg10 mi
12:53 pm74 °FPassing clouds.8 mph50%29.92 "Hg10 mi
Weather by CustomWeather, © 2019

See weather overview